Chapel Hill, NC

10:46 AM EST on February 26, 2017 (GMT -0500)
Williams

Weather History for KIGX - April, 2013

Change the Weather History Date:

Sunday, April 14, 2013

  Actual Average Record
Temperature  
Mean Temperature 62 °F -  
Max Temperature 79 °F 69 °F 88 °F (1977)
Min Temperature 44 °F 45 °F 28 °F (1950)
Degree Days  
Heating Degree Days 4    
Growing Degree Days 12 (Base 50)    
Moisture  
Dew Point 40 °F    
Average Humidity 47    
Maximum Humidity 82    
Minimum Humidity 19    
Precipitation  
Precipitation 0.00 in - - ()
Sea Level Pressure  
Sea Level Pressure 30.05 in    
Wind  
Wind Speed 1 mph (WSW)    
Max Wind Speed 7 mph    
Max Gust Speed -    
Visibility 10 miles    
Events Rain    
Averages and records for this station are not official NWS values.
T = Trace of Precipitation, MM = Missing Value Source: NWS Daily Summary

Daily Weather History Graph

Daily Weather History Graph

Search for Another Location

Airport or City:

Trip Planner

Search our weather history database for the weather conditions in past years. The results will help you decide how hot, cold, wet, or windy it might be!

Date:

Astronomy

Apr. 14, 2013 Rise Set
Actual Time 6:44 AM EDT 7:49 PM EDT
Civil Twilight 6:17 AM EDT 8:15 PM EDT
Nautical Twilight 5:46 AM EDT 8:47 PM EDT
Astronomical Twilight 5:14 AM EDT 9:19 PM EDT
Moon 9:25 AM EDT (4/14) 11:55 PM EDT (4/14)
Length of Visible Light 13h 57m
Length of Day
13h 04m
Waxing Crescent, 17% of the Moon is Illuminated
Apr 14
Waxing Crescent
Apr 18
First Quarter
Apr 25
Full
May 2
Last Quarter
May 9
New

Hourly Weather History & Observations

Time (EDT) Temp. Dew Point Humidity Pressure Visibility Wind Dir Wind Speed Gust Speed Precip Events Conditions
12:56 AM 53.1 °F 41.0 °F 64% 30.02 in 10.0 mi Calm Calm - N/A   Clear
1:56 AM 51.1 °F 42.1 °F 71% 30.02 in 10.0 mi WSW 3.5 mph - N/A   Clear
2:56 AM 50.0 °F 41.0 °F 71% 30.02 in 10.0 mi Calm Calm - N/A   Clear
3:56 AM 48.0 °F 39.9 °F 74% 30.03 in 10.0 mi Calm Calm - N/A   Clear
4:56 AM 46.0 °F 39.9 °F 79% 30.04 in 10.0 mi Calm Calm - N/A   Clear
5:56 AM 46.0 °F 39.9 °F 79% 30.05 in 10.0 mi Calm Calm - N/A   Clear
6:56 AM 44.1 °F 39.0 °F 82% 30.07 in 10.0 mi Calm Calm - N/A   Clear
7:56 AM 50.0 °F 42.1 °F 74% 30.09 in 10.0 mi Calm Calm - N/A   Clear
8:56 AM 60.1 °F 41.0 °F 49% 30.10 in 10.0 mi Calm Calm - N/A   Clear
10:56 AM 70.0 °F 41.0 °F 35% 30.10 in 10.0 mi Calm Calm - N/A   Clear
11:56 AM 73.9 °F 36.0 °F 25% 30.09 in 10.0 mi Calm Calm - N/A   Clear
12:56 PM 77.0 °F 33.1 °F 20% 30.08 in 9.0 mi North - - N/A   Partly Cloudy
1:56 PM 78.1 °F 33.1 °F 19% 30.06 in 10.0 mi Calm Calm - N/A   Clear
2:56 PM 79.0 °F 35.1 °F 20% 30.04 in 10.0 mi Variable 5.8 mph - N/A   Clear
3:56 PM 79.0 °F 35.1 °F 20% 30.02 in 10.0 mi Variable 3.5 mph - N/A   Clear
4:56 PM 77.0 °F 36.0 °F 23% 30.03 in 10.0 mi Variable 6.9 mph - N/A   Clear
5:56 PM 75.9 °F 37.9 °F 25% 30.04 in 10.0 mi Variable 4.6 mph - N/A   Clear
6:56 PM 73.0 °F 39.9 °F 30% 30.04 in 10.0 mi Calm Calm - N/A   Clear
7:56 PM 72.0 °F 41.0 °F 33% 30.04 in 10.0 mi Variable 3.5 mph - N/A   Scattered Clouds
8:56 PM 70.0 °F 45.0 °F 41% 30.03 in 10.0 mi Calm Calm - N/A   Clear
9:56 PM 69.1 °F 46.9 °F 45% 30.03 in 10.0 mi Variable 3.5 mph - N/A   Overcast
10:56 PM 68.0 °F 46.0 °F 45% 30.03 in 10.0 mi Calm Calm - N/A   Overcast
11:56 PM 63.0 °F 51.1 °F 65% 30.05 in 10.0 mi Calm Calm - 0.00 in Rain Light Rain